Weather History for Flint, MI

Change the Weather History Date:

Sunday, November 16, 2014

  Actual Average Record
Temperature  
Mean Temperature 31 °F 39 °F  
Max Temperature 34 °F 47 °F 68 °F (1953)
Min Temperature 27 °F 31 °F 7 °F (1933)
Degree Days  
Heating Degree Days 34 26  
Month to date heating degree days 406 374  
Since 1 July heating degree days 988 1070  
Cooling Degree Days 0 0  
Month to date cooling degree days 0 0  
Year to date cooling degree days 597 531  
Moisture  
Dew Point 23 °F    
Average Humidity 68    
Maximum Humidity 78    
Minimum Humidity 58    
Precipitation  
Precipitation 0.02 in 0.09 in 0.89 in (1988)
Month to date precipitation 0.32 1.46  
Year to date precipitation 32.41 28.24  
Snow  
Snow 0.50 in 0.10 in 4.80 in (1989)
Month to date snowfall 1.1 0.6  
Since 1 July snowfall 1.8 1.0  
Since 1 September snowfall 1.8 1.0  
Snow Depth T in    
Sea Level Pressure  
Sea Level Pressure 30.07 in    
Wind  
Wind Speed 7 mph (SSW)    
Max Wind Speed 14 mph    
Max Gust Speed 17 mph    
Visibility 6 miles    
Events Snow    
T = Trace of Precipitation, MM = Missing Value Source: NWS Daily Summary

Daily Weather History Graph

Daily Weather History Graph

Search for Another Location

Airport:

Trip Planner

Search our weather history database for the weather conditions in past years. The results will help you decide how hot, cold, wet, or windy it might be!

Date:

Astronomy

Nov. 16, 2014 Rise Set
Actual Time 7:28 AM EST 5:10 PM EST
Civil Twilight 6:57 AM EST 5:41 PM EST
Nautical Twilight 6:23 AM EST 6:15 PM EST
Astronomical Twilight 5:49 AM EST 6:49 PM EST
Moon 1:25 AM EST (11/16) 2:11 PM EST (11/16)
Length of Visible Light 10h 43m
Length of Day
9h 41m
Waning Crescent, 31% of the Moon is Illuminated
Nov 16
Waning Crescent
Nov 22
New
Nov 29
First Quarter
Dec 6
Full
Dec 14
Last Quarter

Hourly Weather History & Observations

Time (EST) Temp. Windchill Dew Point Humidity Pressure Visibility Wind Dir Wind Speed Gust Speed Precip Events Conditions
12:53 AM 30.0 °F 24.1 °F 18.0 °F 61% 30.23 in 9.0 mi SW 5.8 mph - N/A   Overcast
1:26 AM 28.9 °F 19.2 °F 19.0 °F 67% 30.20 in 2.5 mi WSW 11.5 mph - 0.00 in Snow Light Snow
1:33 AM 28.0 °F 18.6 °F 21.0 °F 75% 30.19 in 0.8 mi SW 10.4 mph - 0.00 in Snow Light Snow
1:49 AM 26.6 °F 18.2 °F 23.0 °F 86% 30.19 in 1.5 mi SSW 8.1 mph - 0.01 in Snow Light Snow
1:53 AM 27.0 °F 19.5 °F 23.0 °F 85% 30.22 in 2.0 mi SSW 6.9 mph - 0.01 in Snow Light Snow
2:11 AM 27.0 °F 19.5 °F 23.0 °F 85% 30.18 in 3.0 mi SSW 6.9 mph - 0.00 in Snow Light Snow
2:53 AM 28.0 °F 24.2 °F 21.9 °F 78% 30.19 in 6.0 mi SW 3.5 mph - 0.00 in   Haze
3:53 AM 28.0 °F - 21.0 °F 75% 30.17 in 8.0 mi Calm Calm - N/A   Overcast
4:53 AM 28.0 °F 24.2 °F 19.0 °F 69% 30.17 in 8.0 mi SW 3.5 mph - N/A   Overcast
5:53 AM 28.0 °F 22.8 °F 18.0 °F 66% 30.16 in 9.0 mi SSW 4.6 mph - N/A   Overcast
6:53 AM 28.9 °F 21.1 °F 19.0 °F 67% 30.14 in 10.0 mi SSW 8.1 mph - N/A   Overcast
7:53 AM 30.0 °F 22.4 °F 21.0 °F 69% 30.13 in 9.0 mi SSW 8.1 mph - N/A   Overcast
8:53 AM 30.0 °F 21.7 °F 21.0 °F 69% 30.13 in 7.0 mi SW 9.2 mph - N/A   Overcast
9:17 AM 30.0 °F 22.4 °F 21.9 °F 72% 30.10 in 2.0 mi SSW 8.1 mph - 0.00 in Snow Light Snow
9:25 AM 30.0 °F 22.4 °F 23.0 °F 75% 30.10 in 1.5 mi SSW 8.1 mph - 0.00 in Snow Light Snow
9:53 AM 30.0 °F 22.4 °F 24.1 °F 79% 30.14 in 1.5 mi SW 8.1 mph - 0.00 in Snow Light Snow
9:57 AM 30.0 °F 21.7 °F 24.1 °F 79% 30.10 in 2.5 mi SW 9.2 mph - 0.00 in Snow Light Snow
10:10 AM 30.0 °F 20.5 °F 24.1 °F 79% 30.09 in 3.0 mi SSW 11.5 mph - 0.00 in Snow Light Snow
10:53 AM 30.9 °F 22.8 °F 24.1 °F 76% 30.11 in 7.0 mi SW 9.2 mph - 0.00 in   Overcast
11:46 AM 33.1 °F 26.1 °F 24.1 °F 70% 30.07 in 7.0 mi WSW 8.1 mph - N/A   Overcast
11:53 AM 32.0 °F 24.8 °F 24.1 °F 73% 30.09 in 7.0 mi SW 8.1 mph - N/A   Overcast
12:01 PM 32.0 °F 23.0 °F 24.8 °F 75% 30.07 in 7.0 mi WSW 11.5 mph - N/A   Overcast
12:37 PM 33.1 °F 26.1 °F 25.0 °F 72% 30.05 in 7.0 mi SSW 8.1 mph - N/A   Overcast
12:53 PM 34.0 °F 26.0 °F 25.0 °F 70% 30.07 in 6.0 mi WSW 10.4 mph - N/A   Haze
1:53 PM 33.1 °F 24.9 °F 24.1 °F 70% 30.05 in 6.0 mi SSW 10.4 mph - 0.00 in   Haze
2:14 PM 33.1 °F 25.5 °F 24.1 °F 70% 30.01 in 6.0 mi WSW 9.2 mph - N/A   Haze
2:53 PM 34.0 °F 27.2 °F 25.0 °F 70% 30.03 in 5.0 mi SSW 8.1 mph - 0.00 in   Haze
3:41 PM 34.0 °F 28.0 °F 24.1 °F 67% 29.99 in 7.0 mi WSW 6.9 mph - N/A   Overcast
3:53 PM 34.0 °F 28.8 °F 24.1 °F 67% 30.02 in 7.0 mi SSW 5.8 mph - N/A   Overcast
4:14 PM 34.0 °F 29.8 °F 24.1 °F 67% 29.99 in 8.0 mi South 4.6 mph - N/A   Overcast
4:21 PM 34.0 °F 28.8 °F 23.0 °F 64% 29.99 in 8.0 mi SSW 5.8 mph - N/A   Overcast
4:29 PM 34.0 °F 28.0 °F 23.0 °F 64% 29.99 in 8.0 mi SSW 6.9 mph - N/A   Overcast
4:53 PM 34.0 °F 27.2 °F 23.0 °F 64% 30.01 in 7.0 mi SSW 8.1 mph - N/A   Overcast
5:53 PM 33.1 °F 27.7 °F 23.0 °F 66% 30.02 in 9.0 mi SSW 5.8 mph - N/A   Mostly Cloudy
6:10 PM 32.0 °F 26.4 °F 23.0 °F 69% 29.98 in 8.0 mi SSW 5.8 mph - N/A   Mostly Cloudy
6:35 PM 32.0 °F 26.4 °F 23.0 °F 69% 29.98 in 8.0 mi SSW 5.8 mph - N/A   Overcast
6:53 PM 33.1 °F 27.7 °F 23.0 °F 66% 30.00 in 9.0 mi SSW 5.8 mph - N/A   Overcast
7:53 PM 32.0 °F 27.5 °F 23.0 °F 69% 29.99 in 8.0 mi SSW 4.6 mph - N/A   Scattered Clouds
8:53 PM 32.0 °F 25.6 °F 25.0 °F 75% 29.96 in 7.0 mi SSW 6.9 mph - N/A   Overcast
9:53 PM 32.0 °F 26.4 °F 25.0 °F 75% 29.94 in 6.0 mi South 5.8 mph - N/A   Haze
10:23 PM 32.0 °F 26.4 °F 25.0 °F 75% 29.90 in 6.0 mi South 5.8 mph - N/A   Haze
10:53 PM 32.0 °F 24.8 °F 26.1 °F 79% 29.93 in 6.0 mi SSW 8.1 mph - N/A   Haze
11:03 PM 32.0 °F 25.6 °F 26.1 °F 79% 29.89 in 5.0 mi South 6.9 mph - N/A   Haze
11:53 PM 32.0 °F 24.2 °F 26.1 °F 79% 29.91 in 5.0 mi South 9.2 mph - N/A   Haze